User: anonymous   Login
Location: Sternwarte Stuttgart
(48.7670°N, 9.1830°E)
Time: 20:22:47
(UTC+01:00)
Language:

Cosmos 1908 - Orbit

View from above orbital plane
View from above orbital plane
View from above satellite
View from above satellite

Ground track
Ground track

The orbit data is extracted from the following two-line orbital elements,

1 18748U 88001A   19078.27424960 +.00000922 +00000-0 +48258-4 0  9998
2 18748 082.4737 149.4724 0013331 190.2210 169.8753 15.14547089702628
Epoch (UTC): 19 March 2019 06:34:55
Eccentricity: 0.0013331
inclination: 82.4737°
perigee height: 513 km
apogee height: 531 km
right ascension of ascending node: 149.4724°
argument of perigee: 190.2210°
revolutions per day: 15.14547089
mean anomaly at epoch: 169.8753°
orbit number at epoch: 70262

The dashed part of the orbit path shows where the satellite is in the earth's shadow,  

DLR